This demonstration page uses our WeatherBlox Daily Observations layout. Learn more.

Left ArrowRight Arrow

Hourly Observations for September 29, 2021

Temp ( °F °C ) Dew Point ( °F °C ) Humidity (%) Winds ( mph kmh ) Pressure ( in mb ) Visibility ( mi km ) Precip ( " mm )
12:51 am 00:51 Clear 62 16.7 61 16.1 96 96 N N/A 29.81 1010 10 16 N/A
1:51 am 01:51 Clear 63 17.2 61 16.1 93 93 undefined N/A 29.81 1009 10 16 N/A
2:51 am 02:51 Clear 62 16.7 61 16.1 96 96 W 6 9 29.81 1009 10 16 N/A
3:51 am 03:51 Clear 61 16.1 60 15.6 97 97 SSE 5 7 29.81 1010 10 16 N/A
4:51 am 04:51 Clear 61 16.1 60 15.6 97 97 E 6 9 29.82 1010 10 16 N/A
5:51 am 05:51 Clear 58 14.4 58 14.4 100 100 NW 3 6 29.84 1011 10 16 N/A
6:51 am 06:51 Sunny 59 15 59 15 100 100 N N/A 29.86 1011 10 16 N/A
7:51 am 07:51 Sunny 63 17.2 61 16.1 93 93 N N/A 29.87 1012 10 16 N/A
8:51 am 08:51 Sunny 71 21.7 59 15 66 66 E 8 13 29.86 1011 10 16 N/A
9:51 am 09:51 Sunny 74 23.3 58 14.4 57 57 ESE 9 15 29.86 1011 10 16 N/A
10:51 am 10:51 Sunny 78 25.6 58 14.4 50 50 E 8 13 29.83 1010 10 16 N/A
11:51 am 11:51 Sunny 80 26.7 56 13.3 44 44 ENE 7 11 29.82 1010 10 16 N/A
12:51 pm 12:51 Sunny 82 27.8 55 12.8 40 40 undefined N/A 29.79 1009 10 16 N/A
1:51 pm 13:51 Partly Cloudy 83 28.3 52 11.1 34 34 SW 7 11 29.75 1008 10 16 N/A
2:51 pm 14:51 Sunny 86 30 51 10.6 30 30 VRB 5 7 29.73 1007 10 16 N/A
3:51 pm 15:51 Partly Cloudy 84 28.9 50 10 31 31 VRB 6 9 29.73 1007 10 16 N/A
4:51 pm 16:51 Sunny 82 27.8 50 10 33 33 SW 3 6 29.73 1007 10 16 N/A
5:51 pm 17:51 Sunny 78 25.6 53 11.7 42 42 NW 7 11 29.75 1007 10 16 N/A
6:51 pm 18:51 Clear 75 23.9 56 13.3 52 52 WNW 8 13 29.77 1008 10 16 N/A
7:51 pm 19:51 Clear 71 21.7 58 14.4 63 63 W 9 15 29.78 1008 10 16 N/A
8:51 pm 20:51 Mostly Clear 70 21.1 59 15 68 68 NW 7 11 29.78 1009 10 16 N/A
9:51 pm 21:51 Partly Cloudy 71 21.7 56 13.3 59 59 WNW 6 9 29.79 1009 10 16 N/A
10:07 pm 22:07 Mostly Cloudy with Heavy Rain 68 20 57 13.9 68 68 WNW 6 9 29.81 1009 2 2 0.02 0.51
10:18 pm 22:18 Cloudy with Rain 64 17.8 55 12.8 73 73 NNW 16 26 29.82 1010 4 6 0.34 8.64
10:30 pm 22:30 Partly Cloudy 64 18 55 13 73 73 NW 12 19 29.82 1010 10 16 N/A
10:51 pm 22:51 Partly Cloudy 66 18.9 58 14.4 75 75 NE 8 13 29.81 1009 10 16 0.36 9.14
11:51 pm 23:51 Mostly Cloudy 65 18.3 62 16.7 90 90 SE 3 6 29.81 1009 10 16 N/A

Powered by AerisWeather